Regional Weather Roundup
Issued by NWS

Home | Current Version | Previous Version | Text Only | Print | Product List | Glossary On
Versions: 1 2 3 4 5 6 7 8 9 10 11 12 13 14 15 16 17 18 19 20 21 22 23 24 25 26 27 28 29 30 31 32 33 34 35 36 37 38 39 40 41 42 43 44 45 46 47 48 49 50
000
ASUS43 KTOP 272059
RWRKS

WEATHER ROUNDUP FOR KANSAS
NATIONAL WEATHER SERVICE GOODLAND KS
400 PM CDT WED AUG 27 2014

NOTE:  "FAIR" INDICATES FEW OR NO CLOUDS BELOW 12,000 FEET WITH NO
SIGNIFICANT WEATHER AND/OR OBSTRUCTIONS TO VISIBILITY.

KSZ001>006-013>018-027>032-041>047-272200-
NORTHWEST KANSAS

CITY           SKY/WX    TMP DP  RH WIND       PRES   REMARKS
GOODLAND       PTSUNNY   77  65  66 S14       30.07F
HAYS           CLOUDY    82  66  57 SE21G26   30.04F
HILL CITY      HVY RAIN  70  68  93 E10       30.06F VSB 1/2
RUSSELL        LGT RAIN  76  68  76 SE13      30.04F
$$

KSZ061>065-074>080-084>089-272200-
SOUTHWEST KANSAS

CITY           SKY/WX    TMP DP  RH WIND       PRES   REMARKS
DODGE CITY     PTSUNNY   84  67  56 S16G25    30.05F
ELKHART          N/A     84  61  45 S16         N/A
GARDEN CITY    PTSUNNY   81  67  62 S14G26    30.03F THUNDER
GREAT BEND     CLOUDY    81  66  61 SE14      30.05F
LIBERAL        PTSUNNY   84  64  51 S16G23    30.05F
$$

KSZ066>073-081>083-090>101-272200-
SOUTHEAST KANSAS

CITY           SKY/WX    TMP DP  RH WIND       PRES   REMARKS
CHANUTE        MOSUNNY   94  63  35 CALM      30.03F HX  95
COFFEYVILLE    MOSUNNY   95  66  38 CALM      30.01F HX  98
HUTCHINSON     CLOUDY    87  67  51 S12       30.05F
NEWTON         CLOUDY    90  61  37 S9        30.09F
PARSONS        MOSUNNY   96  66  37 VRB7      30.04F HX  99
WICHITA INTL   CLOUDY    92  64  39 VRB5      30.03F
WICHITA JABRA  PTSUNNY   91  63  39 S6        30.04F
WINFIELD       PTSUNNY   93  65  39 SE8       30.04F HX  95
$$

KSZ007>012-019>026-033>040-048>060-102>105-272200-
NORTHEAST KANSAS

CITY           SKY/WX    TMP DP  RH WIND       PRES   REMARKS
CONCORDIA      CLOUDY    80  74  81 E8        30.06F
EMPORIA        PTSUNNY   91  64  40 VRB3      30.04F
LAWRENCE       PTSUNNY   87  71  58 NE12      30.05F
MANHATTAN      CLOUDY    89  71  55 NE8       30.04F HX  95
OLATHE IND     MOSUNNY   89  71  55 E12       30.07F HX  95
OLATHE EXE     MOSUNNY   87  71  58 E12       30.07F
SALINA         CLOUDY    87  66  49 NW6       30.05F
TOPEKA BILLARD PTSUNNY   87  73  62 NE9       30.05F
TOPEKA FORBES  CLOUDY    89  72  56 E9        30.05F HX  96
$$


USA.gov is the U.S. government's official web portal to all federal, state and local government web resources and services.